Flag for Russia

Past Weather in Bratsk, Russia — Yesterday and Last 2 Weeks

Now
57 °F

Cool.


Feels Like: 56 °F
Forecast: 67 / 56 °F
Wind: 6 mph from Northwest

Location: Bratsk / Irkutsk

Current Time: Jul 12, 2020 at 5:20:53 am

Latest Report: Jul 12, 2020 at 4:30 am


Visibility: N/A

Pressure: 29.83 "Hg

Humidity: 77%

Dew Point: 50 °F

Location of BratskLocation

Past Weather in Bratsk — Graph

°F

Bratsk Temperature Yesterday

Maximum temperature yesterday: 72 °F (at 2:30 pm)
Minimum temperature yesterday: 59 °F (at 11:30 pm)
Average temperature yesterday: 67 °F

High & Low Weather Summary for the Past Weeks

 TemperatureHumidityPressure
High90 °F (Jul 2, 2:00 pm)100% (Jun 27, 4:00 am)30.01 "Hg (Jun 27, 4:00 am)
Low54 °F (Jul 6, 4:00 am)24% (Jun 30, 4:00 pm)29.39 "Hg (Jul 11, 12:30 am)
Average72 °F62%29.70 "Hg
* Reported Jun 27 4:00 am — Jul 12 4:00 am, Bratsk. Weather by CustomWeather, © 2020

Note: Actual official high and low records may vary slightly from our data, if they occured in-between our weather recording intervals... More about our weather records

Bratsk Weather History for the Previous 24 Hours

Scroll right to see more
 ConditionsComfort  
Time TempWeatherWind HumidityBarometerVisibility
4:00 am
Sun, Jul 12
57 °FCool.3 mph77%29.83 "HgN/A
3:30 am59 °FCool.3 mph72%29.83 "HgN/A
3:00 am57 °FCool.3 mph77%29.80 "HgN/A
2:30 am59 °FCool.3 mph72%29.83 "HgN/A
2:00 am57 °FCool.3 mph72%29.80 "HgN/A
1:30 am57 °FCool.3 mph72%29.80 "HgN/A
1:00 am59 °FClear.3 mph68%29.80 "HgN/A
12:30 am59 °FClear.3 mph68%29.80 "HgN/A
12:00 am59 °FClear.3 mph68%29.80 "HgN/A
11:30 pm
Sat, Jul 11
59 °FClear.3 mph68%29.80 "HgN/A
11:00 pm61 °FClear.3 mph63%29.80 "HgN/A
10:30 pm61 °FSunny.3 mph68%29.80 "HgN/A
10:00 pm63 °FClear.6 mph64%29.77 "HgN/A
9:30 pm64 °FClear.6 mph60%29.77 "HgN/A
9:00 pm66 °FClear.6 mph52%29.77 "HgN/A
8:30 pm68 °FClear.8 mph49%29.74 "HgN/A
8:00 pm68 °FClear.8 mph49%29.74 "HgN/A
7:30 pm68 °FClear.10 mph49%29.71 "HgN/A
7:00 pm70 °FClear.10 mph46%29.71 "HgN/A
6:30 pm70 °FClear.8 mph46%29.71 "HgN/A
6:00 pm72 °FClear.8 mph44%29.71 "HgN/A
5:30 pm68 °FClear.10 mph53%29.68 "HgN/A
5:00 pm72 °FClear.10 mph44%29.68 "HgN/A
4:30 pm72 °FClear.13 mph47%29.68 "HgN/A
4:00 pm70 °FPartly sunny.10 mph53%29.68 "HgN/A
3:30 pm72 °FPartly sunny.10 mph50%29.68 "HgN/A
3:00 pm70 °FScattered clouds.10 mph50%29.68 "HgN/A
2:30 pm72 °FScattered clouds.8 mph50%29.65 "HgN/A
2:00 pm68 °FClear.8 mph60%29.65 "HgN/A
1:30 pm68 °FScattered clouds.6 mph60%29.65 "HgN/A
1:00 pm64 °FClear.6 mph68%29.65 "HgN/A
12:30 pm64 °FClear.8 mph68%29.62 "HgN/A
12:00 pm63 °FClear.6 mph68%29.62 "HgN/A
11:30 am63 °FClear.8 mph68%29.62 "HgN/A
11:00 am63 °FScattered clouds.10 mph68%29.59 "HgN/A
10:30 am64 °FPartly sunny.13 mph64%29.59 "HgN/A
10:00 am66 °FPartly sunny.10 mph68%29.56 "HgN/A
9:30 am64 °FPartly sunny.10 mph73%29.56 "HgN/A
8:30 am64 °FScattered clouds.8 mph73%29.53 "HgN/A
8:00 am64 °FScattered clouds.8 mph78%29.50 "HgN/A
7:30 am64 °FScattered clouds.13 mph78%29.50 "HgN/A
7:00 am64 °FClear.13 mph78%29.47 "HgN/A
6:30 am64 °FClear.8 mph78%29.47 "HgN/A
6:00 am66 °FClear.10 mph73%29.45 "HgN/A
5:30 am66 °FClear.6 mph73%29.45 "HgN/A
5:00 am66 °FClear.3 mph73%29.42 "HgN/A
Weather by CustomWeather, © 2020

See weather overview